[[{"header":{"parameterUnit":"m.s-1","parameterCategory":1,"la1":30.2991,"la2":30.254,"lo1":-89.0895,"lo2":-89.0444,"dy":0.0017,"dx":0.0017,"nx":28,"ny":28,"refTime":"2024-07-27T09:00:00:Z","depth":0,"parameterNumber":2,"parameterNumberName":"U-component_of_WINDS"},"data":[0,0,0,0,0,0,0,0,0,0,0,0,0,0,0,0,0,0,0,0,0,0,0,0,0,0,0,0,0,0,0,0,0,0,0,0,0,0,0,0,0,0,0,0,0,0,0,0,0,0,0,0,0,0,0,0,0,0,-1.2031,-1.2031,0,-1.2038,-1.2038,-1.2038,-1.2018,-1.2018,-1.2017,-1.2017,-1.2025,-1.2026,-1.2026,0,0,0,0,0,0,0,0,0,0,0,0,0,-1.2001,-1.2001,-1.2031,-1.2031,-1.2031,-1.2038,-1.2038,-1.2038,-1.2019,-1.2018,-1.2017,-1.2016,-1.2025,-1.2026,-1.2027,0,0,0,0,0,0,0,0,0,0,0,0,0,-1.2012,-1.2002,-1.2031,-1.2022,-1.2021,-1.2038,-1.2038,-1.2038,-1.2019,-1.2018,-1.2017,-1.2016,-1.2024,-1.2025,-1.2027,-1.2053,0,0,-1.203,-1.2031,0,0,0,0,0,0,0,0,-1.2011,-1.2013,-1.2023,-1.2022,-1.2022,-1.2026,-1.2031,-1.2043,-1.2019,-1.202,-1.2017,-1.2015,-1.2026,-1.2027,-1.2031,-1.2053,-1.2053,-1.203,-1.2031,-1.2032,-1.2032,0,0,0,0,0,0,0,-1.201,-1.2012,-1.2034,-1.2023,-1.2022,-1.2018,-1.2019,-1.2033,-1.2028,-1.202,-1.2018,-1.2019,-1.2026,-1.203,-1.2031,-1.2054,-1.203,-1.2031,-1.2032,-1.2033,-1.2099,-1.21,0,0,0,0,0,0,-1.2011,-1.2012,-1.2033,-1.2034,-1.2014,-1.2019,-1.202,-1.2026,-1.2028,-1.2027,-1.202,-1.2018,-1.2028,-1.2029,-1.2031,-1.2062,-1.2032,-1.2033,-1.2033,-1.2098,-1.2099,-1.2101,0,0,0,0,0,0,-1.201,-1.2013,-1.2033,-1.2022,-1.2025,-1.2021,-1.2028,-1.2026,-1.203,-1.2028,-1.2027,-1.2025,-1.2027,-1.2029,-1.2048,-1.2062,-1.2033,-1.2034,-1.2097,-1.2099,-1.21,-1.2124,0,0,0,0,0,0,-1.2009,-1.2013,-1.2022,-1.2023,-1.2025,-1.2049,-1.2029,-1.2027,-1.2032,-1.203,-1.2032,-1.2032,-1.2027,-1.2046,-1.2049,-1.2063,-1.2035,-1.2096,-1.2098,-1.2099,-1.2122,-1.2126,-1.213,0,0,0,0,0,-1.2008,-1.2028,-1.2022,-1.2025,-1.2037,-1.205,-1.2052,-1.2045,-1.2034,-1.2043,-1.2042,-1.2032,-1.206,-1.2048,-1.2051,-1.2066,-1.2095,-1.2097,-1.2099,-1.212,-1.2126,-1.213,0,0,0,0,0,0,-1.2029,-1.2028,-1.2022,-1.2043,-1.2047,-1.2047,-1.2058,-1.2051,-1.2058,-1.2056,-1.2047,-1.2048,-1.2068,-1.2069,-1.2056,-1.2092,-1.2076,-1.2079,-1.209,-1.2095,-1.2099,-1.2099,-1.2036,0,0,0,0,0,-1.2036,-1.2046,-1.2045,-1.2064,-1.2066,-1.2062,-1.2068,-1.2062,-1.2066,-1.2068,-1.2068,-1.2072,-1.2083,-1.2089,-1.2098,-1.2123,-1.2123,-1.2135,-1.2139,-1.2142,-1.2144,-1.2158,-1.2163,-1.2108,-1.2108,-1.2108,0,0,-1.205,-1.2051,-1.2058,-1.2068,-1.2071,-1.2082,-1.2064,-1.2076,-1.2085,-1.207,-1.2087,-1.2088,-1.2092,-1.2114,-1.2124,-1.2115,-1.216,-1.2145,-1.2147,-1.2148,-1.2161,-1.2166,-1.2171,-1.211,-1.211,-1.2109,0,0,-1.2083,-1.2084,-1.21,-1.2104,-1.2108,-1.2105,-1.2109,-1.2111,-1.2111,-1.2128,-1.2117,-1.2128,-1.2145,-1.2149,-1.2153,-1.2189,-1.218,-1.2192,-1.2213,-1.2226,-1.2231,-1.2235,-1.2248,-1.2252,-1.2195,-1.2195,-1.2195,0,-1.21,-1.2117,-1.211,-1.2123,-1.2128,-1.2116,-1.2132,-1.2136,-1.2143,-1.2147,-1.2138,-1.216,-1.2162,-1.2185,-1.2194,-1.2197,-1.2202,-1.2191,-1.2231,-1.2234,-1.2238,-1.225,-1.2255,-1.2196,-1.2196,-1.2196,-1.2196,0,-1.2138,-1.215,-1.2163,-1.217,-1.2176,-1.2191,-1.2187,-1.2195,-1.219,-1.2189,-1.2207,-1.221,-1.2219,-1.2225,-1.2219,-1.2247,-1.2242,-1.2232,-1.2215,-1.2245,-1.2256,-1.2261,-1.2199,-1.2198,-1.2198,-1.2197,0,0,-1.2182,-1.2187,-1.2191,-1.2195,-1.2199,-1.2208,-1.2224,-1.2233,-1.224,-1.2246,-1.2259,-1.2275,-1.2266,-1.2271,-1.2266,-1.2278,-1.2307,-1.2267,-1.2267,-1.2274,-1.2339,-1.2346,-1.2351,-1.2301,-1.2302,-1.2303,-1.2338,0,-1.2214,-1.224,-1.2235,-1.226,-1.2271,-1.226,-1.2274,-1.2278,-1.2278,-1.2288,-1.2288,-1.2299,-1.2286,-1.2289,-1.2301,-1.2301,-1.232,-1.2298,-1.2314,-1.2314,-1.2312,-1.2357,-1.2365,-1.2397,-1.2343,-1.2343,-1.2344,0,-1.2254,-1.2262,-1.2288,-1.2292,-1.2297,-1.2309,-1.2318,-1.2327,-1.2333,-1.2332,-1.2338,-1.2332,-1.2348,-1.2332,-1.2354,-1.2339,-1.2346,-1.2347,-1.2348,-1.2349,-1.233,-1.2359,-1.2408,-1.2413,-1.2351,-1.235,-1.235,0,-1.2284,-1.2301,-1.2319,-1.2322,-1.2327,-1.2336,-1.2339,-1.2343,-1.235,-1.2358,-1.2362,-1.2372,-1.2378,-1.2386,-1.2383,-1.2371,-1.2406,-1.239,-1.2406,-1.2406,-1.2413,-1.2413,-1.2464,-1.2418,-1.2418,-1.2418,-1.2418,0,-1.232,-1.2336,-1.2332,-1.2344,-1.2362,-1.2357,-1.2376,-1.2377,-1.2382,-1.2394,-1.2385,-1.2396,-1.2392,-1.2403,-1.2401,-1.242,-1.2423,-1.2423,-1.2422,-1.2423,-1.2423,-1.2427,-1.2424,-1.2419,-1.2419,-1.2419,-1.2419,0,-1.2355,-1.2353,-1.2373,-1.2376,-1.2377,-1.2391,-1.2394,-1.2405,-1.2405,-1.242,-1.2423,-1.2423,-1.2436,-1.2434,-1.2448,-1.2447,-1.2471,-1.2467,-1.2469,-1.2468,-1.2485,-1.2483,-1.2539,-1.2546,-1.2496,-1.2497,-1.2497,0,-1.2378,-1.2391,-1.2396,-1.2403,-1.2406,-1.2418,-1.2425,-1.2421,-1.2428,-1.2437,-1.2447,-1.2459,-1.2468,-1.249,-1.2491,-1.2503,-1.2499,-1.2518,-1.2501,-1.2502,-1.25,-1.2499,-1.25,-1.2521,-1.2522,-1.2522,-1.2523,0,-1.2419,-1.2417,-1.2427,-1.2438,-1.2446,-1.2454,-1.2461,-1.2468,-1.2464,-1.2473,-1.2487,-1.2494,-1.2509,-1.2522,-1.2533,-1.2536,-1.2529,-1.2529,-1.2533,-1.2534,-1.2535,-1.2535,-1.2478,-1.2527,-1.2527,-1.2526,-1.2526,-1.2526,-1.2448,-1.246,-1.2465,-1.2477,-1.2482,-1.2489,-1.25,-1.2501,-1.2512,-1.2524,-1.2521,-1.2536,-1.2543,-1.2557,-1.2562,-1.2574,-1.2567,-1.2573,-1.2575,-1.2577,-1.2579,-1.2533,-1.2576,-1.2576,-1.2576,-1.2576,-1.2576,0,-1.2489,-1.2492,-1.2503,-1.2513,-1.2523,-1.2516,-1.2524,-1.2533,-1.2546,-1.2553,-1.2563,-1.2578,-1.2591,-1.2594,-1.2606,-1.2616,-1.2613,-1.2619,-1.2618,-1.2619,-1.2584,-1.2579,-1.2621,-1.2621,-1.2621,-1.2621,-1.2621,-1.2621,-1.2511,-1.2529,-1.2529,-1.2551,-1.2554,-1.2569,-1.2574,-1.2581,-1.2586,-1.2604,-1.2615,-1.2616,-1.2622,-1.2635,-1.2646,-1.2647,-1.2652,-1.2659,-1.2659,-1.2626,-1.2621,-1.2617,-1.2612,-1.266,-1.266,-1.2692,-1.2693,-1.2693]},{"header":{"parameterUnit":"m.s-1","parameterCategory":1,"la1":30.2991,"la2":30.254,"lo1":-89.0895,"lo2":-89.0444,"dy":0.0017,"dx":0.0017,"nx":28,"ny":28,"refTime":"2024-07-27T09:00:00:Z","depth":0,"parameterNumber":3,"parameterNumberName":"V-component_of_WINDS"},"data":[0,0,0,0,0,0,0,0,0,0,0,0,0,0,0,0,0,0,0,0,0,0,0,0,0,0,0,0,0,0,0,0,0,0,0,0,0,0,0,0,0,0,0,0,0,0,0,0,0,0,0,0,0,0,0,0,0,0,3.073,3.073,0,3.0728,3.0728,3.0728,3.0774,3.0775,3.0776,3.0777,3.0772,3.0771,3.077,0,0,0,0,0,0,0,0,0,0,0,0,0,3.0768,3.0767,3.073,3.073,3.073,3.0728,3.0728,3.0728,3.0773,3.0775,3.0776,3.0778,3.0773,3.0771,3.077,0,0,0,0,0,0,0,0,0,0,0,0,0,3.0757,3.0766,3.073,3.0752,3.0754,3.0728,3.0728,3.0728,3.0773,3.0775,3.0777,3.0778,3.0773,3.0771,3.0769,3.0721,0,0,3.0764,3.0763,0,0,0,0,0,0,0,0,3.0758,3.0756,3.0749,3.075,3.0753,3.0753,3.074,3.0726,3.0773,3.0766,3.0777,3.0779,3.0764,3.0763,3.0759,3.0721,3.0721,3.0763,3.0762,3.0761,3.0761,0,0,0,0,0,0,0,3.0758,3.0756,3.0729,3.0749,3.0751,3.0761,3.0762,3.0737,3.0754,3.0766,3.077,3.0769,3.0765,3.076,3.0759,3.072,3.0763,3.0762,3.0761,3.076,3.0642,3.064,0,0,0,0,0,0,3.0756,3.0756,3.0729,3.0729,3.076,3.0759,3.0759,3.0751,3.0755,3.0757,3.0768,3.0771,3.0763,3.0761,3.0759,3.0701,3.0761,3.076,3.0759,3.0644,3.0641,3.0639,0,0,0,0,0,0,3.0757,3.0754,3.0729,3.0743,3.0741,3.0756,3.0746,3.075,3.0745,3.0756,3.0759,3.0759,3.0764,3.0762,3.073,3.0702,3.0759,3.0757,3.0646,3.0643,3.064,3.0587,0,0,0,0,0,0,3.0758,3.0754,3.0736,3.0743,3.074,3.0701,3.0745,3.0749,3.0742,3.0747,3.0749,3.0751,3.0765,3.0733,3.0728,3.07,3.0756,3.0648,3.0645,3.0641,3.0591,3.0582,3.0575,0,0,0,0,0,3.0759,3.0721,3.0735,3.0731,3.0719,3.0699,3.0698,3.0716,3.074,3.0721,3.0728,3.0751,3.0706,3.0729,3.0724,3.0695,3.065,3.0646,3.0641,3.0595,3.0584,3.0575,0,0,0,0,0,0,3.0709,3.0722,3.0738,3.0701,3.0699,3.0707,3.0685,3.0704,3.0695,3.0699,3.0722,3.0722,3.0686,3.0688,3.0713,3.0648,3.0682,3.0677,3.0648,3.0638,3.063,3.063,3.0754,0,0,0,0,0,3.0694,3.0678,3.069,3.0655,3.0654,3.0669,3.0662,3.0676,3.0674,3.0673,3.0678,3.0675,3.066,3.0649,3.0636,3.0592,3.0592,3.057,3.0562,3.0555,3.0549,3.0525,3.0514,3.0624,3.0624,3.0624,0,0,3.0661,3.0667,3.0655,3.0645,3.0646,3.0627,3.0668,3.0648,3.0634,3.067,3.064,3.0644,3.0641,3.0603,3.0586,3.0603,3.0519,3.0549,3.0544,3.0542,3.0519,3.0508,3.0499,3.0621,3.0622,3.0622,0,0,3.0593,3.0596,3.0568,3.0567,3.0568,3.0578,3.0571,3.0577,3.0581,3.0552,3.0578,3.0562,3.0536,3.0533,3.0528,3.0459,3.0479,3.0454,3.0411,3.0387,3.0378,3.037,3.0344,3.0335,3.0449,3.0449,3.0449,0,3.0553,3.0528,3.055,3.0528,3.0522,3.0555,3.0526,3.0524,3.0519,3.0514,3.0534,3.0502,3.0503,3.0463,3.0446,3.0442,3.0433,3.0453,3.0378,3.037,3.0364,3.0339,3.0329,3.0446,3.0446,3.0446,3.0447,0,3.0477,3.0459,3.0436,3.0432,3.0424,3.0398,3.0415,3.0404,3.0419,3.0427,3.0397,3.0399,3.0387,3.0379,3.0393,3.0341,3.0352,3.0374,3.0408,3.035,3.0327,3.0317,3.0441,3.0442,3.0443,3.0444,0,0,3.0376,3.0385,3.0376,3.0374,3.0377,3.0363,3.0338,3.0327,3.0316,3.0312,3.0291,3.0269,3.0289,3.0284,3.0298,3.0277,3.022,3.0302,3.0302,3.0285,3.0161,3.0143,3.0132,3.0234,3.0233,3.0231,3.0161,0,3.0309,3.0268,3.0287,3.0243,3.0226,3.0257,3.0236,3.0234,3.0241,3.0227,3.0235,3.0218,3.0248,3.0244,3.0225,3.0231,3.0195,3.0237,3.0213,3.0211,3.0211,3.012,3.0101,3.0034,3.0152,3.0151,3.015,0,3.0224,3.0218,3.0172,3.0178,3.0171,3.0151,3.0142,3.0129,3.0128,3.0134,3.0128,3.0147,3.0122,3.0157,3.0121,3.0149,3.0141,3.0142,3.014,3.0137,3.0176,3.0113,3.0014,3.0003,3.0136,3.0137,3.0138,0,3.0153,3.0133,3.0103,3.01,3.0106,3.0091,3.0093,3.0094,3.0086,3.0078,3.0073,3.0061,3.0055,3.0045,3.006,3.0085,3.0022,3.0059,3.0025,3.0024,3.0009,3.0009,2.9905,3.0006,3.0006,3.0006,3.0006,0,3.0075,3.0045,3.0071,3.0052,3.0019,3.0042,3.0009,3.0014,3.0014,2.9996,3.0023,3.0005,3.0027,3.001,3.0022,2.999,2.9987,2.999,2.9993,2.9987,2.9986,2.998,2.9985,3.0004,3.0004,3.0005,3.0005,0,2.9989,3.0005,2.9974,2.9983,2.9984,2.996,2.9967,2.9949,2.9958,2.9935,2.9931,2.9945,2.9927,2.9942,2.9924,2.9932,2.9889,2.99,2.9889,2.9892,2.9857,2.9859,2.9744,2.9729,2.9841,2.984,2.9839,0,2.9937,2.9915,2.9922,2.9912,2.9913,2.9897,2.9889,2.991,2.99,2.9897,2.988,2.9865,2.9853,2.9823,2.9831,2.9818,2.9827,2.9788,2.9825,2.9819,2.9824,2.9825,2.9822,2.9779,2.9778,2.9777,2.9776,0,2.9843,2.9852,2.9841,2.9831,2.9822,2.9815,2.9811,2.9801,2.9822,2.981,2.9793,2.9784,2.9767,2.9751,2.974,2.9741,2.9761,2.9765,2.9756,2.9748,2.9742,2.9743,2.9867,2.9767,2.9768,2.9768,2.9769,2.9769,2.9772,2.9754,2.9755,2.9741,2.974,2.9735,2.9719,2.9727,2.9713,2.9701,2.9714,2.9693,2.9692,2.968,2.9678,2.966,2.9676,2.9664,2.9661,2.9657,2.9651,2.9747,2.9659,2.9659,2.9659,2.9659,2.966,0,2.9678,2.9681,2.9668,2.9661,2.9649,2.9672,2.9668,2.9656,2.9637,2.9635,2.9624,2.9603,2.9588,2.9595,2.9581,2.9566,2.9575,2.9561,2.9562,2.9561,2.9638,2.9646,2.9554,2.9554,2.9554,2.9554,2.9554,2.9554,2.9627,2.9597,2.9606,2.9576,2.9579,2.9559,2.9554,2.9549,2.9548,2.9524,2.9512,2.9517,2.9518,2.9505,2.9491,2.9493,2.9486,2.9469,2.9474,2.9546,2.9556,2.9566,2.9574,2.9468,2.9468,2.9399,2.9398,2.9398]}]]